FW9076 Weather Reports


time (UTC)temp
C
wind
direction
speed
KPH
gust
KPH
rain 1hr
cm
rain 24hr
cm
rain mn
cm
humidity
%
barometer
mb
20260906060047 18 0 0.0 0.0 0.00 0.00 0.00 99 1015.3
20260906054606 18 0 0.0 0.0 0.00 0.00 0.00 99 1015.4
20260906053054 18 0 0.0 0.0 0.00 0.00 0.00 99 1015.6
20260906051545 18 0 0.0 0.0 0.00 0.00 0.00 99 1015.7
20260906050108 18 0 0.0 0.0 0.00 0.00 0.00 98 1015.7
20260906044552 18 0 0.0 0.0 0.00 0.00 0.00 98 1015.6
20260906043050 19 0 0.0 0.0 0.00 0.00 0.00 98 1015.5
20260906041550 19 0 0.0 0.0 0.00 0.00 0.00 98 1015.5
20260906040048 19 0 0.0 0.0 0.00 0.00 0.00 98 1015.7
20260906034552 19 0 0.0 0.0 0.00 0.00 0.00 98 1015.9
20260906033101 20 0 0.0 0.0 0.00 0.00 0.00 98 1016.0
20260906031545 20 0 0.0 0.0 0.00 0.00 0.00 98 1016.1
20260906030047 20 0 0.0 0.0 0.00 0.00 0.00 98 1015.8
20260906024555 20 0 0.0 0.0 0.00 0.00 0.00 98 1015.9
20260906023050 20 0 0.0 0.0 0.00 0.00 0.00 98 1015.5
20260906021551 20 0 0.0 0.0 0.00 0.00 0.00 98 1015.5
20260906020056 20 0 0.0 0.0 0.00 0.00 0.00 97 1015.6
20260906014556 20 0 0.0 0.0 0.00 0.00 0.00 97 1015.5
20260906013049 20 0 0.0 0.0 0.00 0.00 0.00 97 1015.6
20260906011546 21 0 0.0 0.0 0.00 0.00 0.00 96 1015.3
20260906010055 21 0 0.0 0.0 0.00 0.00 0.00 96 1015.1
20260906004546 21 0 0.0 0.0 0.00 0.00 0.00 96 1014.9
20260906003045 21 0 0.0 0.0 0.00 0.00 0.00 95 1014.5
20260906001556 22 0 0.0 0.0 0.00 0.00 0.00 95 1014.4
20260906000051 22 0 0.0 0.0 0.00 0.00 0.00 94 1014.2
20260905234609 23 0 0.0 0.0 0.00 0.00 0.00 93 1014.1
20260905233046 23 0 0.0 0.0 0.00 0.00 0.00 93 1014.2
20260905231556 24 0 0.0 0.0 0.00 0.00 0.00 92 1014.0
20260905230112 25 0 0.0 0.0 0.00 0.00 0.00 92 1014.0
20260905224558 25 0 0.0 0.0 0.00 0.00 0.00 91 1013.9
20260905223055 25 0 0.0 1.6 0.00 0.00 0.00 89 1013.9
20260905221556 25 0 0.0 0.0 0.00 0.00 0.00 88 1013.9
20260905220050 26 0 0.0 1.6 0.00 0.00 0.00 86 1013.9
20260905214545 26 0 0.0 1.6 0.00 0.00 0.00 83 1014.0
20260905213053 26 0 0.0 1.6 0.00 0.00 0.00 81 1013.9
20260905211554 26 0 0.0 0.0 0.00 0.00 0.00 82 1013.9
20260905210058 26 0 0.0 0.0 0.00 0.00 0.00 80 1013.9
20260905204556 26 0 0.0 1.6 0.00 0.00 0.00 79 1014.0
20260905203100 27 0 0.0 0.0 0.00 0.00 0.00 82 1013.9
20260905201558 26 0 0.0 1.6 0.00 0.00 0.00 78 1014.2
20260905200105 25 0 0.0 1.6 0.00 0.00 0.00 86 1014.4
20260905194553 24 0 0.0 0.0 0.00 0.00 0.00 93 1014.4
20260905193105 23 0 0.0 0.0 0.00 0.00 0.00 94 1014.7
20260905191546 23 0 0.0 0.0 0.00 0.00 0.00 94 1014.6
20260905190056 22 0 0.0 0.0 0.00 0.00 0.00 96 1014.8
20260905184603 21 0 0.0 0.0 0.00 0.00 0.00 94 1014.7
20260905183055 22 0 0.0 0.0 0.00 0.00 0.00 93 1014.2
20260905181558 22 0 0.0 0.0 0.00 0.00 0.00 91 1014.9
20260905180056 23 0 0.0 1.6 0.00 0.00 0.00 88 1015.6
20260905174551 24 238 0.0 1.6 0.00 0.00 0.00 83 1016.3
20260905173046 25 0 0.0 3.2 0.00 0.00 0.00 84 1016.5
20260905171548 26 76 3.2 6.4 0.00 0.00 0.00 87 1016.5
20260905170046 27 0 0.0 0.0 0.00 0.00 0.00 88 1016.7
20260905164553 28 0 0.0 0.0 0.00 0.00 0.00 85 1016.5
20260905163054 30 0 0.0 1.6 0.00 0.00 0.00 77 1016.5
20260905161557 30 232 0.0 1.6 0.00 0.00 0.00 78 1016.3
20260905160057 29 0 0.0 0.0 0.00 0.00 0.00 84 1016.6
20260905154602 30 0 0.0 1.6 0.00 0.00 0.00 82 1016.7
20260905153049 30 232 0.0 1.6 0.00 0.00 0.00 79 1016.4
20260905151558 30 0 0.0 0.0 0.00 0.00 0.00 87 1016.4
20260905150100 28 0 0.0 1.6 0.00 0.00 0.00 90 1016.2
20260905144550 27 0 0.0 0.0 0.00 0.00 0.00 93 1016.3
20260905143049 26 0 0.0 0.0 0.00 0.00 0.00 95 1016.4
20260905141556 25 0 0.0 0.0 0.00 0.00 0.00 96 1016.4
20260905140059 23 0 0.0 0.0 0.00 0.00 0.00 98 1016.5
20260905134552 22 0 0.0 0.0 0.00 0.00 0.00 99 1016.4
20260905133046 22 0 0.0 0.0 0.00 0.00 0.00 99 1016.7
20260905131556 21 0 0.0 0.0 0.00 0.00 0.00 100 1017.0
20260905130047 21 0 0.0 0.0 0.00 0.00 0.00 100 1017.0
20260905124547 20 0 0.0 0.0 0.00 0.00 0.00 100 1017.0
20260905123051 20 0 0.0 0.0 0.00 0.00 0.00 100 1017.0
20260905121601 20 0 0.0 0.0 0.00 0.00 0.00 100 1017.0
20260905120056 19 0 0.0 0.0 0.00 0.00 0.00 100 1016.8
20260905114552 19 0 0.0 0.0 0.00 0.00 0.00 99 1016.7
20260905113104 19 0 0.0 0.0 0.00 0.00 0.00 99 1016.6
20260905111557 19 0 0.0 0.0 0.00 0.00 0.00 99 1016.3
20260905110046 19 0 0.0 0.0 0.00 0.00 0.00 99 1016.3
20260905104557 19 0 0.0 0.0 0.00 0.00 0.00 99 1016.1
20260905103052 19 0 0.0 0.0 0.00 0.00 0.00 99 1016.0
20260905101547 19 0 0.0 0.0 0.00 0.00 0.00 99 1016.0
20260905100047 19 0 0.0 0.0 0.00 0.00 0.00 99 1016.0
20260905094554 20 0 0.0 0.0 0.00 0.00 0.00 99 1015.8
20260905093055 20 0 0.0 0.0 0.00 0.00 0.00 99 1015.9
20260905091546 20 0 0.0 0.0 0.00 0.00 0.00 99 1015.8
20260905090047 20 0 0.0 0.0 0.00 0.00 0.00 99 1016.0
20260905084556 20 0 0.0 0.0 0.00 0.00 0.00 99 1015.9
20260905083054 20 0 0.0 0.0 0.00 0.00 0.00 99 1016.2
20260905081545 20 0 0.0 0.0 0.00 0.00 0.00 99 1016.2
20260905080048 20 0 0.0 0.0 0.00 0.00 0.00 99 1016.4
20260905074547 20 0 0.0 0.0 0.00 0.00 0.00 99 1016.7
20260905073051 20 0 0.0 0.0 0.00 0.00 0.00 99 1016.7
20260905071549 20 0 0.0 0.0 0.00 0.00 0.00 99 1016.8
20260905070051 21 0 0.0 0.0 0.00 0.00 0.00 99 1017.0
20260905064551 21 0 0.0 0.0 0.00 0.00 0.00 99 1017.1
20260905063052 21 0 0.0 0.0 0.00 0.00 0.00 99 1017.2
20260905061603 21 0 0.0 0.0 0.00 0.00 0.00 99 1017.4